Flight Track Log - Related Links

Times and Time Zones

All times are in EDT time to prevent confusion due to time zone crossing. See the EJA922 flight status page for this flight to view local times or setup timezone preferences in your user account.

Time Position Orientation Groundspeed Altitude Reporting Facility
EDT Latitude Longitude Course Direction KTS MPH feet Rate Location/Type
Tue 04:46:26 PM 43.8478 -92.3519 116° Southeast 258 297 7,500  Level Minneapolis Center
Tue 04:47:28 PM 43.8156 -92.2583 115° Southeast 278 320 10,800 2,419 Climbing Minneapolis Center
Tue 04:48:30 PM 43.7778 -92.1467 115° Southeast 344 396 12,500 2,177 Climbing Minneapolis Center
Tue 04:49:32 PM 43.7347 -92.0214 115° Southeast 362 417 15,300 2,855 Climbing Minneapolis Center
Tue 04:50:34 PM 43.6986 -91.8572 107° East 378 435 18,400 2,661 Climbing Minneapolis Center
Tue 04:51:36 PM 43.6786 -91.7133 101° East 385 443 20,800 2,177 Climbing Minneapolis Center
Tue 04:52:38 PM 43.6558 -91.5689 102° East 385 443 22,900 1,065 Climbing Minneapolis Center
Tue 04:53:40 PM 43.6322 -91.4094 102° East 411 473 23,000 48 Climbing Minneapolis Center
Tue 04:54:42 PM 43.6075 -91.2356 101° East 452 520 23,000  Level Minneapolis Center
Tue 04:55:45 PM 43.5753 -91.0286 102° East 460 529 23,000  Level Minneapolis Center
Tue 04:56:15 PM 43.5636 -90.9597 103° East 465 535 23,000  Level Chicago Center
Tue 04:57:17 PM 43.5378 -90.7856 102° East 467 537 23,000  Level Chicago Center
Tue 04:58:19 PM 43.5044 -90.5772 102° East 467 537 23,000  Level Chicago Center
Tue 04:59:21 PM 43.4789 -90.4033 101° East 466 536 23,000  Level Chicago Center
Tue 05:00:23 PM 43.4514 -90.2339 103° East 469 540 23,000  Level Chicago Center
Tue 05:01:25 PM 43.4228 -90.0589 103° East 470 541 23,000 -97 Level Chicago Center
Tue 05:02:27 PM 43.3883 -89.8497 103° East 470 541 22,800 -823 Descending Chicago Center
Tue 05:03:29 PM 43.3597 -89.6769 103° East 467 537 21,300 -1,403 Descending Chicago Center
Tue 05:04:31 PM 43.3292 -89.5081 104° East 460 529 19,900 -1,403 Descending Chicago Center
Tue 05:05:33 PM 43.3011 -89.3433 103° East 448 516 18,400 -1,440 Descending Chicago Center
Tue 05:06:36 PM 43.2747 -89.1806 102° East 442 509 16,900 -1,392 Descending Chicago Center
Tue 05:07:38 PM 43.2467 -89.0192 103° East 440 506 15,500 -1,500 Descending Chicago Center
Tue 05:08:40 PM 43.2150 -88.8381 103° East 419 482 13,800 -1,161 Descending Chicago Center
Tue 05:09:42 PM 43.1900 -88.6953 103° East 399 459 13,100 -339 Descending Chicago Center
Tue 05:10:44 PM 43.1639 -88.5481 104° East 401 461 13,100 -48 Level Chicago Center
Tue 05:11:46 PM 43.1347 -88.3953 105° East 417 480 13,000 -339 Descending Chicago Center
Tue 05:12:48 PM 43.0608 -88.2497 125° Southeast 414 476 12,400 -871 Descending Chicago Center
Tue 05:13:50 PM 42.9597 -88.1900 157° South 400 460 11,200 -1,056 Descending Chicago Center
Tue 05:14:53 PM 42.8611 -88.1336 157° South 388 447 10,200 -774 Descending Chicago Center
Tue 05:15:54 PM 42.7822 -88.0931 159° South 307 353 9,600 -1,171 Descending Chicago Center
Tue 05:16:56 PM 42.7067 -88.0744 170° South 280 322 7,800 -1,728 Descending Chicago Center
Tue 05:17:59 PM 42.6319 -88.0544 169° South 275 316 6,000 -1,872 Descending Chicago Center
Tue 05:19:01 PM 42.5461 -88.0294 168° South 266 306 3,900 -1,016 Descending Chicago Center
Tue 05:20:03 PM 42.4881 -88.0264 178° South 227 261 3,900  Level Chicago Center
Tue 05:21:05 PM 42.4297 -88.0239 178° South 212 244 3,900  Level Chicago Center
Tue 05:22:07 PM 42.3697 -88.0242 180° South 213 245 3,900  Level Chicago Center
Tue 05:23:09 PM 42.3133 -88.0181 175° South 210 242 3,900 -194 Level Chicago Center
Tue 05:24:11 PM 42.2625 -87.9844 154° Southeast 204 235 3,500 -774 Descending Chicago Center
Tue 05:25:13 PM 42.2003 -87.9475 156° South 204 235 2,300 -823 Descending Chicago Center
Tue 05:26:15 PM 42.1550 -87.9217 157° South 202 232 1,800 -484 Descending Chicago Center

Login

Don't have an account? Register now (free) for customized features, flight alerts, and more!